| time (UTC) | temp C | wind direction | speed KPH | gust KPH | rain 1hr cm | rain 24hr cm | rain mn cm | humidity % | barometer mb |
| 20260506114538 | 11 | 283 | 1.6 | 4.8 | 0.13 | 0.33 | 0.33 | 98 | 1006.9 |
| 20260506114037 | 11 | 272 | 1.6 | 4.8 | 0.18 | 0.30 | 0.30 | 98 | 1007.2 |
| 20260506113534 | 11 | 286 | 0.0 | 4.8 | 0.18 | 0.30 | 0.30 | 98 | 1007.1 |
| 20260506113031 | 11 | 335 | 0.0 | 3.2 | 0.18 | 0.28 | 0.28 | 97 | 1007.0 |
| 20260506112528 | 11 | 294 | 0.0 | 3.2 | 0.18 | 0.28 | 0.28 | 97 | 1007.2 |
| 20260506112025 | 11 | 217 | 0.0 | 1.6 | 0.13 | 0.25 | 0.25 | 97 | 1007.1 |
| 20260506111523 | 11 | 325 | 0.0 | 1.6 | 0.13 | 0.25 | 0.25 | 96 | 1007.1 |
| 20260506111020 | 11 | 349 | 1.6 | 4.8 | 0.18 | 0.23 | 0.23 | 96 | 1007.2 |
| 20260506110518 | 11 | 289 | 0.0 | 1.6 | 0.00 | 0.20 | 0.20 | 96 | 1007.2 |
| 20260506110015 | 11 | 328 | 3.2 | 4.8 | 0.13 | 0.20 | 0.20 | 96 | 1007.1 |
| 20260506105511 | 11 | 289 | 0.0 | 1.6 | 0.30 | 0.20 | 0.20 | 95 | 1007.0 |
| 20260506105008 | 11 | 293 | 1.6 | 3.2 | 0.18 | 0.18 | 0.18 | 94 | 1006.9 |
| 20260506104506 | 11 | 334 | 3.2 | 3.2 | 0.00 | 0.15 | 0.15 | 93 | 1006.9 |
| 20260506104004 | 11 | 296 | 1.6 | 3.2 | 0.13 | 0.15 | 0.15 | 92 | 1007.2 |
| 20260506103501 | 11 | 259 | 0.0 | 1.6 | 0.13 | 0.15 | 0.15 | 92 | 1007.3 |
| 20260506102957 | 11 | 308 | 0.0 | 1.6 | 0.00 | 0.13 | 0.13 | 91 | 1007.1 |
| 20260506102456 | 11 | 333 | 1.6 | 3.2 | 0.00 | 0.13 | 0.13 | 91 | 1007.1 |
| 20260506101953 | 11 | 218 | 0.0 | 4.8 | 0.18 | 0.13 | 0.13 | 90 | 1006.9 |
| 20260506101449 | 11 | 208 | 0.0 | 3.2 | 0.18 | 0.13 | 0.13 | 90 | 1007.1 |
| 20260506100946 | 11 | 299 | 0.0 | 1.6 | 0.13 | 0.10 | 0.10 | 89 | 1007.2 |
| 20260506100445 | 11 | 328 | 3.2 | 4.8 | 0.13 | 0.10 | 0.10 | 87 | 1007.2 |
| 20260506095942 | 11 | 273 | 1.6 | 1.6 | 0.00 | 0.08 | 0.08 | 86 | 1006.9 |
| 20260506095441 | 11 | 40 | 0.0 | 3.2 | 0.00 | 0.08 | 0.08 | 87 | 1007.1 |
| 20260506094936 | 11 | 297 | 0.0 | 0.0 | 0.00 | 0.08 | 0.08 | 89 | 1006.9 |
| 20260506094435 | 11 | 181 | 0.0 | 0.0 | 0.00 | 0.08 | 0.08 | 87 | 1006.8 |
| 20260506093932 | 11 | 273 | 0.0 | 0.0 | 0.00 | 0.08 | 0.08 | 86 | 1006.9 |
| 20260506093430 | 12 | 282 | 0.0 | 1.6 | 0.18 | 0.08 | 0.08 | 86 | 1007.0 |
| 20260506092928 | 12 | 270 | 0.0 | 1.6 | 0.00 | 0.05 | 0.05 | 85 | 1007.0 |
| 20260506092426 | 12 | 273 | 1.6 | 1.6 | 0.13 | 0.05 | 0.05 | 83 | 1006.9 |
| 20260506091922 | 12 | 326 | 0.0 | 0.0 | 0.13 | 0.05 | 0.05 | 84 | 1007.0 |
| 20260506091420 | 12 | 36 | 0.0 | 4.8 | 0.00 | 0.03 | 0.03 | 80 | 1007.1 |
| 20260506090917 | 12 | 94 | 1.6 | 4.8 | 0.00 | 0.03 | 0.03 | 77 | 1007.0 |
| 20260506090415 | 12 | 243 | 0.0 | 1.6 | 0.18 | 0.03 | 0.03 | 77 | 1006.9 |
| 20260506085911 | 13 | 183 | 1.6 | 3.2 | 0.18 | 0.03 | 0.03 | 76 | 1006.9 |
| 20260506085408 | 13 | 85 | 0.0 | 1.6 | 0.00 | 0.00 | 0.00 | 73 | 1006.8 |
| 20260506084904 | 13 | 34 | 1.6 | 3.2 | 0.00 | 0.00 | 0.00 | 70 | 1007.0 |
| 20260506084401 | 13 | 309 | 0.0 | 3.2 | 0.00 | 0.00 | 0.00 | 71 | 1007.2 |
| 20260506083857 | 13 | 177 | 0.0 | 1.6 | 0.00 | 0.00 | 0.00 | 71 | 1007.3 |
| 20260506083355 | 14 | 210 | 0.0 | 1.6 | 0.00 | 0.00 | 0.00 | 69 | 1007.1 |
| 20260506082852 | 14 | 291 | 0.0 | 0.0 | 0.00 | 0.00 | 0.00 | 68 | 1007.2 |
| 20260506082349 | 14 | 340 | 1.6 | 6.4 | 0.00 | 0.00 | 0.00 | 67 | 1007.3 |
| 20260506081844 | 14 | 311 | 1.6 | 3.2 | 0.00 | 0.00 | 0.00 | 67 | 1007.3 |
| 20260506081343 | 15 | 186 | 0.0 | 4.8 | 0.00 | 0.00 | 0.00 | 63 | 1007.6 |
| 20260506080840 | 15 | 37 | 3.2 | 9.7 | 0.00 | 0.00 | 0.00 | 61 | 1007.6 |
| 20260506080337 | 15 | 69 | 4.8 | 4.8 | 0.00 | 0.00 | 0.00 | 59 | 1007.6 |
| 20260506073321 | 16 | 35 | 1.6 | 6.4 | 0.00 | 0.00 | 0.00 | 53 | 1006.9 |
| 20260506072818 | 16 | 41 | 0.0 | 6.4 | 0.00 | 0.00 | 0.00 | 53 | 1007.1 |
| 20260506072315 | 16 | 218 | 1.6 | 4.8 | 0.00 | 0.00 | 0.00 | 52 | 1006.9 |
| 20260506071813 | 16 | 346 | 4.8 | 12.9 | 0.00 | 0.00 | 0.00 | 52 | 1007.0 |
| 20260506071311 | 16 | 49 | 3.2 | 6.4 | 0.00 | 0.00 | 0.00 | 52 | 1007.0 |
| 20260506070808 | 17 | 239 | 4.8 | 6.4 | 0.00 | 0.00 | 0.00 | 52 | 1007.1 |
| 20260506070305 | 16 | 145 | 1.6 | 6.4 | 0.00 | 0.00 | 0.00 | 52 | 1006.9 |
| 20260506062242 | 16 | 330 | 4.8 | 9.7 | 0.00 | 0.00 | 0.00 | 56 | 1007.4 |
| 20260506061737 | 16 | 298 | 3.2 | 4.8 | 0.00 | 0.00 | 0.00 | 56 | 1007.6 |
| 20260506061235 | 16 | 18 | 1.6 | 4.8 | 0.00 | 0.00 | 0.00 | 57 | 1007.8 |
| 20260506060733 | 16 | 50 | 1.6 | 3.2 | 0.00 | 0.00 | 0.00 | 58 | 1007.8 |
| 20260506060230 | 16 | 278 | 1.6 | 3.2 | 0.00 | 0.00 | 0.00 | 59 | 1007.9 |
| 20260506051202 | 15 | 289 | 0.0 | 0.0 | 0.00 | 0.00 | 0.00 | 73 | 1008.3 |
| 20260506050701 | 15 | 269 | 0.0 | 0.0 | 0.00 | 0.00 | 0.00 | 72 | 1008.3 |
| 20260506050157 | 15 | 266 | 0.0 | 1.6 | 0.00 | 0.00 | 0.00 | 71 | 1008.4 |
| 20260506044648 | 15 | 228 | 0.0 | 0.0 | 0.00 | 0.00 | 0.00 | 70 | 1008.5 |
| 20260506044145 | 16 | 252 | 0.0 | 0.0 | 0.00 | 0.00 | 0.00 | 68 | 1008.6 |
| 20260506043642 | 16 | 277 | 0.0 | 1.6 | 0.00 | 0.00 | 0.00 | 68 | 1008.6 |
| 20260506043140 | 16 | 240 | 0.0 | 0.0 | 0.00 | 0.00 | 0.00 | 68 | 1008.3 |
| 20260506042639 | 16 | 264 | 0.0 | 0.0 | 0.00 | 0.00 | 0.00 | 68 | 1008.5 |
| 20260506042137 | 16 | 270 | 0.0 | 0.0 | 0.00 | 0.00 | 0.00 | 67 | 1008.4 |
| 20260506041635 | 16 | 275 | 0.0 | 0.0 | 0.00 | 0.00 | 0.00 | 68 | 1008.5 |
| 20260506041131 | 16 | 171 | 1.6 | 1.6 | 0.00 | 0.00 | 0.00 | 67 | 1008.3 |
| 20260506040629 | 16 | 356 | 0.0 | 1.6 | 0.00 | 0.00 | 0.00 | 66 | 1008.5 |
| 20260506040126 | 16 | 330 | 1.6 | 3.2 | 0.00 | 0.00 | 0.00 | 66 | 1008.7 |
| 20260506035622 | 16 | 24 | 0.0 | 1.6 | 0.00 | 0.23 | 0.23 | 66 | 1008.6 |
| 20260506035119 | 16 | 358 | 0.0 | 1.6 | 0.00 | 0.23 | 0.23 | 66 | 1008.7 |
| 20260506034616 | 16 | 230 | 0.0 | 1.6 | 0.00 | 0.23 | 0.23 | 66 | 1008.9 |
| 20260506034113 | 16 | 230 | 1.6 | 3.2 | 0.00 | 0.23 | 0.23 | 65 | 1008.6 |
| 20260506033611 | 16 | 263 | 0.0 | 3.2 | 0.00 | 0.23 | 0.23 | 66 | 1008.7 |
| 20260506033108 | 16 | 276 | 1.6 | 3.2 | 0.00 | 0.23 | 0.23 | 67 | 1008.6 |
| 20260506032605 | 16 | 87 | 0.0 | 0.0 | 0.00 | 0.23 | 0.23 | 68 | 1008.8 |
| 20260506032102 | 16 | 283 | 0.0 | 3.2 | 0.00 | 0.23 | 0.23 | 68 | 1008.7 |
| 20260506031559 | 15 | 304 | 1.6 | 1.6 | 0.00 | 0.23 | 0.23 | 68 | 1008.8 |
| 20260506031056 | 15 | 47 | 0.0 | 0.0 | 0.00 | 0.23 | 0.23 | 69 | 1008.7 |
| 20260506030554 | 15 | 284 | 0.0 | 1.6 | 0.00 | 0.23 | 0.23 | 68 | 1008.8 |
| 20260506030051 | 15 | 268 | 0.0 | 1.6 | 0.00 | 0.23 | 0.23 | 68 | 1008.8 |
| 20260506025548 | 15 | 210 | 0.0 | 0.0 | 0.00 | 0.23 | 0.23 | 68 | 1008.9 |
| 20260506025044 | 16 | 228 | 0.0 | 1.6 | 0.00 | 0.23 | 0.23 | 67 | 1008.9 |
| 20260506024541 | 16 | 253 | 0.0 | 1.6 | 0.00 | 0.23 | 0.23 | 66 | 1008.8 |
| 20260506024037 | 16 | 272 | 0.0 | 3.2 | 0.00 | 0.23 | 0.23 | 66 | 1008.8 |
| 20260506023534 | 16 | 264 | 0.0 | 0.0 | 0.00 | 0.23 | 0.23 | 65 | 1008.8 |
| 20260506023031 | 16 | 213 | 0.0 | 0.0 | 0.00 | 0.23 | 0.23 | 65 | 1008.9 |
| 20260506022529 | 16 | 18 | 1.6 | 1.6 | 0.00 | 0.23 | 0.23 | 65 | 1008.9 |
| 20260506022026 | 16 | 300 | 0.0 | 0.0 | 0.00 | 0.23 | 0.23 | 65 | 1009.0 |
| 20260506021523 | 16 | 224 | 0.0 | 0.0 | 0.00 | 0.23 | 0.23 | 64 | 1009.1 |
| 20260506021020 | 16 | 98 | 1.6 | 1.6 | 0.00 | 0.23 | 0.23 | 64 | 1009.0 |
| 20260506020518 | 16 | 312 | 3.2 | 3.2 | 0.00 | 0.23 | 0.23 | 64 | 1008.8 |
| 20260506020015 | 17 | 105 | 0.0 | 1.6 | 0.00 | 0.23 | 0.23 | 64 | 1008.9 |
| 20260506015513 | 17 | 24 | 3.2 | 4.8 | 0.00 | 0.23 | 0.23 | 63 | 1008.8 |
| 20260506015009 | 17 | 6 | 0.0 | 1.6 | 0.00 | 0.23 | 0.23 | 62 | 1008.8 |
| 20260506014507 | 17 | 28 | 3.2 | 4.8 | 0.00 | 0.23 | 0.23 | 61 | 1008.7 |
| 20260506014003 | 17 | 234 | 0.0 | 1.6 | 0.00 | 0.23 | 0.23 | 61 | 1008.8 |
| 20260506013501 | 17 | 334 | 1.6 | 3.2 | 0.00 | 0.23 | 0.23 | 61 | 1008.7 |
| 20260506012957 | 17 | 91 | 3.2 | 4.8 | 0.00 | 0.23 | 0.23 | 59 | 1008.8 |
| 20260506012453 | 18 | 263 | 0.0 | 1.6 | 0.00 | 0.23 | 0.23 | 59 | 1009.0 |
| 20260506011950 | 18 | 180 | 0.0 | 11.3 | 0.00 | 0.23 | 0.23 | 58 | 1008.8 |
| 20260506011448 | 18 | 97 | 1.6 | 1.6 | 0.00 | 0.23 | 0.23 | 58 | 1008.7 |
| 20260506010944 | 18 | 298 | 1.6 | 3.2 | 0.00 | 0.23 | 0.23 | 57 | 1008.6 |
| 20260506010443 | 18 | 186 | 1.6 | 4.8 | 0.00 | 0.23 | 0.23 | 58 | 1008.7 |
| 20260506005939 | 18 | 349 | 0.0 | 4.8 | 0.00 | 0.23 | 0.23 | 58 | 1008.5 |
| 20260506005437 | 18 | 207 | 0.0 | 3.2 | 0.00 | 0.23 | 0.23 | 58 | 1008.5 |
| 20260506004932 | 18 | 288 | 1.6 | 1.6 | 0.00 | 0.23 | 0.23 | 57 | 1008.4 |
| 20260506004430 | 18 | 319 | 0.0 | 3.2 | 0.00 | 0.23 | 0.23 | 57 | 1008.4 |
| 20260506003926 | 18 | 2 | 0.0 | 1.6 | 0.00 | 0.23 | 0.23 | 58 | 1008.3 |
| 20260506003423 | 18 | 266 | 0.0 | 1.6 | 0.00 | 0.23 | 0.23 | 57 | 1008.2 |
| 20260506002919 | 18 | 311 | 0.0 | 0.0 | 0.00 | 0.23 | 0.23 | 57 | 1008.3 |
| 20260506002415 | 18 | 359 | 0.0 | 3.2 | 0.00 | 0.23 | 0.23 | 56 | 1008.2 |
| 20260506001910 | 18 | 308 | 0.0 | 0.0 | 0.00 | 0.23 | 0.23 | 56 | 1008.2 |
| 20260506001408 | 18 | 274 | 0.0 | 3.2 | 0.00 | 0.23 | 0.23 | 55 | 1008.1 |
| 20260506000905 | 18 | 260 | 0.0 | 0.0 | 0.00 | 0.23 | 0.23 | 55 | 1008.1 |
| 20260506000403 | 18 | 315 | 1.6 | 4.8 | 0.00 | 0.23 | 0.23 | 54 | 1008.1 |
| 20260505235859 | 19 | 210 | 0.0 | 1.6 | 0.00 | 0.23 | 0.23 | 54 | 1008.1 |
| 20260505235358 | 19 | 131 | 4.8 | 4.8 | 0.00 | 0.23 | 0.23 | 53 | 1008.1 |
| 20260505234854 | 19 | 125 | 0.0 | 4.8 | 0.00 | 0.23 | 0.23 | 53 | 1008.0 |
| 20260505234352 | 19 | 110 | 3.2 | 3.2 | 0.00 | 0.23 | 0.23 | 53 | 1008.3 |
| 20260505233848 | 19 | 199 | 0.0 | 1.6 | 0.00 | 0.23 | 0.23 | 52 | 1008.0 |
| 20260505233346 | 20 | 132 | 0.0 | 4.8 | 0.00 | 0.23 | 0.23 | 52 | 1008.0 |
| 20260505232843 | 20 | 85 | 3.2 | 6.4 | 0.00 | 0.23 | 0.23 | 51 | 1008.0 |
| 20260505232341 | 20 | 354 | 0.0 | 1.6 | 0.00 | 0.23 | 0.23 | 51 | 1007.9 |
| 20260505231837 | 20 | 116 | 6.4 | 9.7 | 0.00 | 0.23 | 0.23 | 51 | 1008.0 |
| 20260505231335 | 20 | 119 | 4.8 | 9.7 | 0.00 | 0.23 | 0.23 | 51 | 1007.8 |
| 20260505230833 | 20 | 87 | 3.2 | 12.9 | 0.00 | 0.23 | 0.23 | 50 | 1007.9 |
| 20260505230330 | 20 | 105 | 11.3 | 12.9 | 0.00 | 0.23 | 0.23 | 49 | 1007.9 |
| 20260505225826 | 20 | 93 | 1.6 | 12.9 | 0.00 | 0.23 | 0.23 | 50 | 1007.9 |
| 20260505225324 | 20 | 75 | 6.4 | 9.7 | 0.00 | 0.23 | 0.23 | 49 | 1007.8 |
| 20260505224819 | 20 | 147 | 8.0 | 14.5 | 0.00 | 0.23 | 0.23 | 49 | 1007.9 |
| 20260505224317 | 21 | 167 | 0.0 | 4.8 | 0.00 | 0.23 | 0.23 | 48 | 1007.6 |
| 20260505223814 | 21 | 37 | 1.6 | 4.8 | 0.00 | 0.23 | 0.23 | 48 | 1007.9 |
| 20260505223311 | 21 | 147 | 3.2 | 9.7 | 0.00 | 0.23 | 0.23 | 48 | 1007.6 |
| 20260505222806 | 21 | 97 | 3.2 | 6.4 | 0.00 | 0.23 | 0.23 | 48 | 1007.8 |
| 20260505222305 | 21 | 15 | 4.8 | 12.9 | 0.00 | 0.23 | 0.23 | 46 | 1007.8 |
| 20260505221800 | 21 | 8 | 6.4 | 9.7 | 0.00 | 0.23 | 0.23 | 46 | 1007.5 |
| 20260505221257 | 21 | 92 | 3.2 | 6.4 | 0.00 | 0.23 | 0.23 | 46 | 1007.5 |
| 20260505220754 | 21 | 102 | 1.6 | 6.4 | 0.00 | 0.23 | 0.23 | 47 | 1007.3 |
| 20260505220251 | 21 | 101 | 3.2 | 9.7 | 0.00 | 0.23 | 0.23 | 46 | 1007.2 |
| 20260505215749 | 21 | 148 | 1.6 | 11.3 | 0.00 | 0.23 | 0.23 | 45 | 1007.1 |
| 20260505215246 | 21 | 133 | 8.0 | 12.9 | 0.00 | 0.23 | 0.23 | 45 | 1007.0 |
| 20260505214744 | 21 | 109 | 6.4 | 6.4 | 0.00 | 0.23 | 0.23 | 45 | 1007.3 |
| 20260505214241 | 21 | 93 | 9.7 | 16.1 | 0.00 | 0.23 | 0.23 | 45 | 1007.2 |
| 20260505213738 | 21 | 48 | 4.8 | 20.9 | 0.00 | 0.23 | 0.23 | 45 | 1007.1 |
| 20260505213236 | 21 | 102 | 8.0 | 12.9 | 0.00 | 0.23 | 0.23 | 44 | 1007.0 |
| 20260505212731 | 22 | 123 | 1.6 | 12.9 | 0.00 | 0.23 | 0.23 | 43 | 1006.8 |
| 20260505212229 | 21 | 133 | 8.0 | 16.1 | 0.00 | 0.23 | 0.23 | 44 | 1007.0 |
| 20260505211726 | 22 | 94 | 8.0 | 27.4 | 0.00 | 0.23 | 0.23 | 44 | 1007.1 |
| 20260505211223 | 22 | 353 | 4.8 | 17.7 | 0.00 | 0.23 | 0.23 | 45 | 1006.9 |
| 20260505210719 | 22 | 352 | 3.2 | 14.5 | 0.00 | 0.23 | 0.23 | 45 | 1006.8 |
| 20260505210216 | 22 | 31 | 6.4 | 11.3 | 0.00 | 0.23 | 0.23 | 45 | 1006.8 |
| 20260505205714 | 22 | 336 | 8.0 | 9.7 | 0.00 | 0.23 | 0.23 | 45 | 1006.8 |
| 20260505205212 | 22 | 346 | 4.8 | 11.3 | 0.00 | 0.23 | 0.23 | 45 | 1006.7 |
| 20260505204708 | 22 | 262 | 1.6 | 16.1 | 0.00 | 0.23 | 0.23 | 44 | 1006.8 |
| 20260505204206 | 23 | 272 | 6.4 | 9.7 | 0.00 | 0.23 | 0.23 | 44 | 1006.8 |
| 20260505203703 | 22 | 285 | 3.2 | 17.7 | 0.00 | 0.23 | 0.23 | 44 | 1006.7 |
| 20260505203200 | 23 | 172 | 14.5 | 20.9 | 0.00 | 0.23 | 0.23 | 44 | 1006.9 |
| 20260505202655 | 22 | 347 | 6.4 | 25.7 | 0.00 | 0.23 | 0.23 | 48 | 1006.8 |
| 20260505202152 | 23 | 352 | 3.2 | 17.7 | 0.00 | 0.23 | 0.23 | 45 | 1006.7 |
| 20260505201648 | 22 | 31 | 4.8 | 12.9 | 0.00 | 0.23 | 0.23 | 47 | 1006.9 |
| 20260505201146 | 22 | 201 | 3.2 | 11.3 | 0.00 | 0.23 | 0.23 | 46 | 1006.8 |
| 20260505200644 | 22 | 41 | 1.6 | 11.3 | 0.00 | 0.23 | 0.23 | 46 | 1006.6 |
| 20260505200141 | 22 | 286 | 1.6 | 11.3 | 0.00 | 0.23 | 0.23 | 47 | 1006.9 |
| 20260505195637 | 22 | 74 | 3.2 | 16.1 | 0.00 | 0.23 | 0.23 | 49 | 1006.8 |
| 20260505195134 | 22 | 99 | 3.2 | 14.5 | 0.00 | 0.23 | 0.23 | 47 | 1006.7 |
| 20260505194631 | 22 | 64 | 6.4 | 11.3 | 0.00 | 0.23 | 0.23 | 47 | 1006.7 |
| 20260505194127 | 22 | 13 | 8.0 | 17.7 | 0.00 | 0.23 | 0.23 | 48 | 1006.7 |
| 20260505193624 | 21 | 41 | 8.0 | 35.4 | 0.00 | 0.23 | 0.23 | 48 | 1006.6 |
| 20260505193121 | 21 | 355 | 8.0 | 14.5 | 0.00 | 0.23 | 0.23 | 47 | 1006.5 |
| 20260505192620 | 22 | 265 | 3.2 | 25.7 | 0.00 | 0.23 | 0.23 | 48 | 1006.5 |
| 20260505192117 | 22 | 110 | 9.7 | 16.1 | 0.00 | 0.23 | 0.23 | 45 | 1006.5 |
| 20260505191615 | 22 | 336 | 3.2 | 22.5 | 0.00 | 0.23 | 0.23 | 46 | 1006.4 |
| 20260505191113 | 22 | 338 | 14.5 | 24.1 | 0.00 | 0.23 | 0.23 | 46 | 1006.4 |
| 20260505190608 | 22 | 245 | 4.8 | 24.1 | 0.00 | 0.23 | 0.23 | 46 | 1006.4 |
| 20260505190103 | 23 | 161 | 4.8 | 16.1 | 0.00 | 0.23 | 0.23 | 43 | 1006.4 |
| 20260505185600 | 23 | 80 | 6.4 | 24.1 | 0.00 | 0.23 | 0.23 | 42 | 1006.4 |
| 20260505185057 | 23 | 96 | 3.2 | 14.5 | 0.00 | 0.23 | 0.23 | 42 | 1006.6 |
| 20260505184554 | 22 | 0 | 3.2 | 4.8 | 0.00 | 0.23 | 0.23 | 46 | 1006.9 |
| 20260505184050 | 22 | 19 | 9.7 | 22.5 | 0.00 | 0.23 | 0.23 | 44 | 1006.9 |
| 20260505183547 | 22 | 24 | 6.4 | 11.3 | 0.00 | 0.23 | 0.23 | 45 | 1006.9 |
| 20260505183045 | 22 | 178 | 9.7 | 33.8 | 0.00 | 0.23 | 0.23 | 45 | 1007.2 |
| 20260505182541 | 23 | 45 | 11.3 | 16.1 | 0.00 | 0.23 | 0.23 | 45 | 1007.1 |
| 20260505182038 | 22 | 289 | 6.4 | 22.5 | 0.00 | 0.23 | 0.23 | 46 | 1007.2 |
| 20260505181534 | 22 | 258 | 8.0 | 16.1 | 0.00 | 0.23 | 0.23 | 46 | 1007.5 |
| 20260505181032 | 23 | 105 | 12.9 | 20.9 | 0.00 | 0.23 | 0.23 | 46 | 1007.3 |
| 20260505180527 | 22 | 75 | 3.2 | 12.9 | 0.00 | 0.23 | 0.23 | 47 | 1007.3 |
| 20260505180026 | 22 | 344 | 4.8 | 24.1 | 0.00 | 0.23 | 0.23 | 48 | 1007.5 |
| 20260505175520 | 22 | 108 | 11.3 | 14.5 | 0.00 | 0.23 | 0.23 | 48 | 1007.8 |
| 20260505175018 | 22 | 323 | 11.3 | 29.0 | 0.00 | 0.23 | 0.23 | 48 | 1007.4 |
| 20260505174515 | 22 | 259 | 14.5 | 24.1 | 0.00 | 0.23 | 0.23 | 49 | 1007.8 |
| 20260505174011 | 22 | 350 | 9.7 | 20.9 | 0.00 | 0.23 | 0.23 | 48 | 1007.8 |
| 20260505173507 | 21 | 116 | 9.7 | 20.9 | 0.00 | 0.23 | 0.23 | 48 | 1007.6 |
| 20260505173004 | 21 | 98 | 6.4 | 20.9 | 0.00 | 0.23 | 0.23 | 51 | 1008.0 |
| 20260505172502 | 21 | 18 | 9.7 | 16.1 | 0.00 | 0.23 | 0.23 | 50 | 1007.9 |
| 20260505172002 | 22 | 324 | 8.0 | 16.1 | 0.00 | 0.23 | 0.23 | 49 | 1007.8 |
| 20260505171458 | 22 | 348 | 8.0 | 17.7 | 0.00 | 0.23 | 0.23 | 49 | 1007.8 |
| 20260505170955 | 22 | 293 | 3.2 | 16.1 | 0.00 | 0.23 | 0.23 | 50 | 1007.8 |
| 20260505170452 | 22 | 71 | 6.4 | 17.7 | 0.00 | 0.23 | 0.23 | 49 | 1007.5 |
| 20260505165947 | 22 | 141 | 6.4 | 12.9 | 0.00 | 0.23 | 0.23 | 49 | 1007.2 |
| 20260505165443 | 22 | 44 | 9.7 | 14.5 | 0.00 | 0.23 | 0.23 | 50 | 1007.3 |
| 20260505164939 | 21 | 20 | 1.6 | 14.5 | 0.00 | 0.23 | 0.23 | 52 | 1007.8 |
| 20260505164436 | 22 | 180 | 6.4 | 16.1 | 0.00 | 0.23 | 0.23 | 52 | 1007.9 |
| 20260505163934 | 21 | 345 | 6.4 | 12.9 | 0.00 | 0.23 | 0.23 | 51 | 1008.1 |
| 20260505163433 | 21 | 317 | 4.8 | 22.5 | 0.00 | 0.23 | 0.23 | 53 | 1008.2 |
| 20260505162931 | 21 | 44 | 9.7 | 14.5 | 0.00 | 0.23 | 0.23 | 52 | 1008.3 |
| 20260505162427 | 21 | 342 | 8.0 | 12.9 | 0.00 | 0.23 | 0.23 | 52 | 1008.2 |
| 20260505161924 | 21 | 64 | 8.0 | 16.1 | 0.00 | 0.23 | 0.23 | 53 | 1008.1 |
| 20260505161420 | 21 | 106 | 4.8 | 20.9 | 0.00 | 0.23 | 0.23 | 55 | 1008.4 |
| 20260505160918 | 21 | 30 | 9.7 | 20.9 | 0.00 | 0.23 | 0.23 | 55 | 1008.5 |
| 20260505160416 | 21 | 305 | 3.2 | 17.7 | 0.00 | 0.23 | 0.23 | 54 | 1008.3 |
| 20260505153355 | 20 | 102 | 4.8 | 12.9 | 0.00 | 0.23 | 0.23 | 55 | 1008.7 |
| 20260505152852 | 20 | 150 | 3.2 | 17.7 | 0.00 | 0.23 | 0.23 | 58 | 1008.5 |
| 20260505152349 | 20 | 107 | 8.0 | 20.9 | 0.00 | 0.23 | 0.23 | 56 | 1008.5 |
| 20260505151849 | 21 | 37 | 4.8 | 33.8 | 0.00 | 0.23 | 0.23 | 55 | 1008.7 |
| 20260505151346 | 20 | 352 | 1.6 | 37.0 | 0.00 | 0.23 | 0.23 | 59 | 1008.4 |
| 20260505150843 | 20 | 301 | 1.6 | 11.3 | 0.00 | 0.23 | 0.23 | 59 | 1008.5 |
| 20260505150341 | 20 | 266 | 6.4 | 9.7 | 0.00 | 0.23 | 0.23 | 56 | 1008.8 |
| 20260505140310 | 18 | 311 | 3.2 | 12.9 | 0.00 | 0.23 | 0.23 | 66 | 1008.5 |
| 20260505130234 | 12 | 280 | 0.0 | 6.4 | 0.18 | 0.23 | 0.23 | 88 | 1008.7 |
| 20260505124724 | 12 | 243 | 9.7 | 27.4 | 0.79 | 0.18 | 0.18 | 86 | 1009.9 |
| 20260505124221 | 13 | 71 | 6.4 | 22.5 | 0.18 | 0.08 | 0.08 | 81 | 1009.7 |
| 20260505123717 | 14 | 84 | 11.3 | 24.1 | 0.13 | 0.05 | 0.05 | 76 | 1009.5 |
| 20260505123214 | 16 | 31 | 6.4 | 12.9 | 0.13 | 0.05 | 0.05 | 70 | 1009.2 |
| 20260505122710 | 17 | 105 | 1.6 | 12.9 | 0.00 | 0.03 | 0.03 | 59 | 1008.9 |
| 20260505122208 | 17 | 140 | 4.8 | 9.7 | 0.00 | 0.03 | 0.03 | 59 | 1009.0 |
| 20260505121704 | 17 | 117 | 1.6 | 4.8 | 0.00 | 0.03 | 0.03 | 59 | 1009.0 |
| 20260505121201 | 17 | 211 | 1.6 | 6.4 | 0.00 | 0.03 | 0.03 | 61 | 1009.0 |
| 20260505120657 | 17 | 293 | 3.2 | 6.4 | 0.00 | 0.03 | 0.03 | 60 | 1009.1 |
| 20260505120153 | 17 | 50 | 1.6 | 9.7 | 0.00 | 0.03 | 0.03 | 60 | 1009.0 |
| 20260505115647 | 17 | 324 | 1.6 | 9.7 | 0.00 | 0.03 | 0.03 | 59 | 1009.0 |
| 20260505115145 | 16 | 133 | 1.6 | 4.8 | 0.00 | 0.03 | 0.03 | 61 | 1008.8 |